Weather History for Fayetteville, AR

Change the Weather History Date:

Sunday, February 3, 2013

  Actual Average Record
Temperature  
Mean Temperature 46 °F 37 °F  
Max Temperature 55 °F 48 °F 75 °F (1962)
Min Temperature 36 °F 26 °F -6 °F (1985)
Degree Days  
Heating Degree Days 19 28  
Month to date heating degree days 82 84  
Since 1 July heating degree days 2415 2678  
Moisture  
Dew Point 25 °F    
Average Humidity 46    
Maximum Humidity 64    
Minimum Humidity 28    
Precipitation  
Precipitation 0.00 in 0.08 in 1.05 in (2012)
Month to date precipitation 0.00 0.26  
Year to date precipitation 3.03 3.10  
Sea Level Pressure  
Sea Level Pressure 30.18 in    
Wind  
Wind Speed 5 mph (WNW)    
Max Wind Speed 17 mph    
Max Gust Speed 29 mph    
Visibility 10 miles    
Events      
T = Trace of Precipitation, MM = Missing Value Source: NWS Daily Summary

Daily Weather History Graph

Daily Weather History Graph

Search for Another Location

Airport:

Trip Planner

Search our weather history database for the weather conditions in past years. The results will help you decide how hot, cold, wet, or windy it might be!

Date:

Astronomy

Feb. 03, 2013 Rise Set
Actual Time 7:15 AM CST 5:46 PM CST
Civil Twilight 6:48 AM CST 6:12 PM CST
Nautical Twilight 6:18 AM CST 6:43 PM CST
Astronomical Twilight 5:48 AM CST 7:13 PM CST
Moon 12:43 AM CST (2/3) 11:24 AM CST (2/3)
Length of Visible Light 11h 24m
Length of Day
10h 30m
Waning Gibbous, 48% of the Moon is Illuminated
Feb 3
Waning Gibbous
Feb 10
New
Feb 17
First Quarter
Feb 25
Full
Mar 4
Last Quarter

Hourly Weather History & Observations

Time (CST) Temp. Windchill Dew Point Humidity Pressure Visibility Wind Dir Wind Speed Gust Speed Precip Events Conditions
12:53 AM 45.0 °F 40.1 °F 28.9 °F 53% 30.21 in 10.0 mi WSW 9.2 mph - N/A   Clear
1:53 AM 45.0 °F 39.7 °F 28.0 °F 52% 30.20 in 10.0 mi WSW 10.4 mph 17.3 mph N/A   Clear
2:53 AM 46.9 °F - 26.1 °F 44% 30.21 in 10.0 mi WNW 12.7 mph 24.2 mph N/A   Clear
3:53 AM 43.0 °F 36.8 °F 26.1 °F 51% 30.22 in 10.0 mi WNW 11.5 mph - N/A   Clear
4:53 AM 39.9 °F 35.1 °F 26.1 °F 58% 30.22 in 10.0 mi NW 6.9 mph - N/A   Clear
5:53 AM 37.9 °F 32.7 °F 26.1 °F 62% 30.25 in 10.0 mi NNW 6.9 mph - N/A   Clear
6:53 AM 37.9 °F 35.5 °F 26.1 °F 62% 30.26 in 10.0 mi North 3.5 mph - N/A   Clear
7:53 AM 37.0 °F 33.3 °F 25.0 °F 62% 30.29 in 10.0 mi NNW 4.6 mph - N/A   Clear
8:53 AM 41.0 °F 34.7 °F 26.1 °F 55% 30.31 in 10.0 mi NNW 10.4 mph - N/A   Clear
9:53 AM 44.1 °F 40.1 °F 24.1 °F 45% 30.30 in 10.0 mi NNW 6.9 mph - N/A   Clear
10:53 AM 46.9 °F - 23.0 °F 39% 30.29 in 10.0 mi Variable 6.9 mph - N/A   Clear
11:53 AM 48.0 °F - 21.9 °F 36% 30.28 in 10.0 mi Calm Calm - N/A   Clear
12:53 PM 48.9 °F - 19.0 °F 31% 30.26 in 10.0 mi Calm Calm - N/A   Clear
1:53 PM 51.1 °F - 19.0 °F 28% 30.22 in 10.0 mi NNW 4.6 mph - N/A   Clear
2:53 PM 53.1 °F - 21.0 °F 29% 30.17 in 10.0 mi Calm Calm - N/A   Clear
3:53 PM 53.1 °F - 21.9 °F 30% 30.14 in 10.0 mi WSW 4.6 mph - N/A   Clear
4:53 PM 53.1 °F - 24.1 °F 32% 30.12 in 10.0 mi Calm Calm - N/A   Clear
5:53 PM 42.1 °F - 30.0 °F 62% 30.12 in 10.0 mi Calm Calm - N/A   Clear
6:53 PM 39.0 °F - 28.0 °F 65% 30.11 in 10.0 mi Calm Calm - N/A   Clear
7:53 PM 39.0 °F - 26.1 °F 60% 30.10 in 10.0 mi Calm Calm - N/A   Clear
8:53 PM 36.0 °F - 25.0 °F 64% 30.08 in 10.0 mi Calm Calm - N/A   Clear
9:53 PM 44.1 °F 42.5 °F 23.0 °F 43% 30.05 in 10.0 mi SSE 3.5 mph - N/A   Clear
10:53 PM 43.0 °F - 24.1 °F 47% 30.02 in 10.0 mi Calm Calm - N/A   Clear
11:53 PM 46.9 °F - 24.1 °F 41% 30.00 in 10.0 mi South 9.2 mph - N/A   Clear